This demonstration page uses our WeatherBlox Daily Observations layout. Learn more.

Left ArrowRight Arrow

Hourly Observations for August 12, 2018

Temp ( °F °C ) Dew Point ( °F °C ) Humidity (%) Winds ( mph kmh ) Pressure ( in mb ) Visibility ( mi km ) Precip ( " mm )
12:17 am 00:17 Clear 63 17 63 17 100 100 Calm 30.06 1018 10 16.0934 N/A
12:37 am 00:37 Clear 63 17 63 17 100 100 Calm 30.06 1018 5 8.0467 N/A
12:56 am 00:56 Clear 64 18 64 18 100 100 Calm 30.06 1018 5 8.0467 N/A
1:17 am 01:17 Clear 63 17 63 17 100 100 Calm 30.06 1018 10 16.0934 N/A
1:36 am 01:36 Clear 63 17 63 17 100 100 Calm 30.06 1018 4 6.43736 N/A
1:57 am 01:57 Clear 63 17 63 17 100 100 Calm 30.06 1018 3 4.82802 N/A
2:16 am 02:16 Clear 61 16 61 16 100 100 Calm 30.06 1018 10 16.0934 N/A
2:37 am 02:37 Clear 61 16 61 16 100 100 Calm 30.06 1018 10 16.0934 N/A
2:57 am 02:57 Clear 61 16 61 16 100 100 Calm 30.06 1018 7 11.26538 N/A
3:16 am 03:16 Clear 61 16 61 16 100 100 Calm 30.06 1018 5 8.0467 N/A
3:37 am 03:37 Clear 63 17 63 17 100 100 Calm 30.06 1018 7 11.26538 N/A
3:56 am 03:56 Mostly Cloudy 61 16 61 16 100 100 Calm 30.06 1018 1.25 2.011675 N/A
4:16 am 04:16 Mostly Cloudy 61 16 61 16 100 100 Calm 30.09 1019 0.75 1.207005 N/A
4:37 am 04:37 Clear 61 16 61 16 100 100 Calm 30.09 1019 10 16.0934 N/A
4:56 am 04:56 Clear 61 16 61 16 100 100 Calm 30.09 1019 7 11.26538 N/A
5:16 am 05:16 Clear 61 16 61 16 100 100 Calm 30.06 1018 5 8.0467 N/A
5:37 am 05:37 Clear 59 15 59 15 100 100 Calm 30.09 1019 4 6.43736 N/A
5:56 am 05:56 Clear 59 15 59 15 100 100 Calm 30.09 1019 2.5 4.02335 N/A
6:17 am 06:17 Mostly Cloudy 59 15 59 15 100 100 Calm 30.09 1019 1 1.60934 N/A
6:36 am 06:36 Mostly Cloudy 59 15 59 15 100 100 Calm 30.09 1019 0.5 0.80467 N/A
6:56 am 06:56 Mostly Cloudy 59 15 59 15 100 100 Calm 30.09 1019 1.75 2.816345 N/A
7:17 am 07:17 Mostly Cloudy 61 16 61 16 100 100 Calm 30.09 1019 0.25 0.402335 N/A
7:36 am 07:36 Mostly Cloudy 61 16 61 16 100 100 Calm 30.09 1019 1 1.60934 N/A
7:57 am 07:57 Sunny 63 17 63 17 100 100 Calm 30.09 1019 7 11.26538 N/A
8:17 am 08:17 Sunny 64 18 64 18 100 100 Calm 30.12 1020 7 11.26538 N/A
8:36 am 08:36 Sunny 66 19 66 19 100 100 Calm 30.12 1020 10 16.0934 N/A
8:57 am 08:57 Sunny 70 21 70 21 100 100 N 3 6 30.12 1020 10 16.0934 N/A
9:16 am 09:16 Sunny 72 22 70 21 94 94 Calm 30.09 1019 10 16.0934 N/A
9:37 am 09:37 Sunny 72 22 70 21 94 94 Calm 30.09 1019 10 16.0934 N/A
9:56 am 09:56 Sunny 73 23 72 22 94 94 Calm 30.09 1019 10 16.0934 N/A
10:16 am 10:16 Sunny 75 24 72 22 89 89 N 5 7 30.09 1019 10 16.0934 N/A
10:37 am 10:37 Sunny 77 25 73 23 89 89 N 5 7 30.12 1020 10 16.0934 N/A
10:56 am 10:56 Sunny 79 26 72 22 79 79 N 5 7 30.09 1019 10 16.0934 N/A
11:17 am 11:17 Sunny 79 26 72 22 79 79 N 7 11 30.12 1020 10 16.0934 N/A
11:36 am 11:36 Sunny 79 26 70 21 74 74 NW 5 7 30.09 1019 10 16.0934 N/A
11:56 am 11:56 Sunny 81 27 70 21 70 70 N 6 9 30.12 1020 10 16.0934 N/A
12:17 pm 12:17 Sunny 82 28 70 21 66 66 NW 9 15 30.09 1019 10 16.0934 N/A
12:36 pm 12:36 Sunny 82 28 70 21 66 66 N 7 11 30.09 1019 10 16.0934 N/A
12:57 pm 12:57 Sunny 82 28 70 21 66 66 NNW 7 11 30.09 1019 10 16.0934 N/A
1:16 pm 13:16 Sunny 82 28 70 21 66 66 N 7 11 30.09 1019 10 16.0934 N/A
1:37 pm 13:37 Partly Cloudy 84 29 70 21 62 62 N 10 17 30.09 1019 10 16.0934 N/A
1:57 pm 13:57 Partly Cloudy 84 29 70 21 62 62 NNE 10 17 30.09 1019 10 16.0934 N/A
2:16 pm 14:16 Partly Cloudy 84 29 70 21 62 62 N 8 13 30.09 1019 10 16.0934 N/A
2:37 pm 14:37 Partly Cloudy 84 29 72 22 66 66 N 9 15 30.09 1019 10 16.0934 N/A
2:56 pm 14:56 Sunny 84 29 70 21 62 62 N 8 13 30.09 1019 10 16.0934 N/A
3:17 pm 15:17 Sunny 84 29 70 21 62 62 N 8 13 30.06 1018 10 16.0934 N/A
3:36 pm 15:36 Sunny 84 29 70 21 62 62 N 8 13 30.06 1018 10 16.0934 N/A
3:57 pm 15:57 Sunny 84 29 70 21 62 62 N 9 15 30.06 1018 10 16.0934 N/A
4:16 pm 16:16 Sunny 84 29 70 21 62 62 N 9 15 30.06 1018 10 16.0934 N/A
4:37 pm 16:37 Sunny 84 29 70 21 62 62 N 13 20 30.06 1018 10 16.0934 N/A
4:56 pm 16:56 Sunny 84 29 70 21 62 62 N 8 13 30.06 1018 10 16.0934 N/A
5:17 pm 17:17 Sunny 84 29 70 21 62 62 N 8 13 30.03 1017 10 16.0934 N/A
5:36 pm 17:36 Sunny 84 29 70 21 62 62 N 8 13 30.03 1017 10 16.0934 N/A
5:57 pm 17:57 Sunny 84 29 70 21 62 62 NNE 7 11 30.03 1017 10 16.0934 N/A
6:16 pm 18:16 Sunny 82 28 70 21 66 66 NNE 8 13 30.03 1017 10 16.0934 N/A
6:37 pm 18:37 Sunny 81 27 70 21 70 70 NNE 6 9 30.06 1018 10 16.0934 N/A
6:56 pm 18:56 Sunny 81 27 70 21 70 70 NNE 6 9 30.03 1017 10 16.0934 N/A
7:16 pm 19:16 Sunny 81 27 72 22 74 74 NE 6 9 30.03 1017 10 16.0934 N/A
7:37 pm 19:37 Sunny 79 26 70 21 74 74 NNE 6 9 30.03 1017 10 16.0934 N/A
7:56 pm 19:56 Sunny 77 25 70 21 79 79 NNE 6 9 30.03 1017 10 16.0934 N/A
8:16 pm 20:16 Sunny 75 24 70 21 83 83 NNE 5 7 30.03 1017 10 16.0934 N/A
8:37 pm 20:37 Sunny 72 22 72 22 100 100 NE 3 6 30.03 1017 10 16.0934 N/A
8:56 pm 20:56 Clear 73 23 70 21 89 89 NE 3 6 30.06 1018 10 16.0934 N/A
9:17 pm 21:17 Clear 72 22 70 21 94 94 NE 3 6 30.06 1018 10 16.0934 N/A
9:36 pm 21:36 Partly Cloudy 70 21 68 20 94 94 Calm 30.09 1019 10 16.0934 N/A
9:56 pm 21:56 Clear 68 20 68 20 100 100 Calm 30.09 1019 10 16.0934 N/A
10:17 pm 22:17 Clear 66 19 66 19 100 100 Calm 30.09 1019 10 16.0934 N/A
10:36 pm 22:36 Clear 66 19 66 19 100 100 Calm 30.09 1019 10 16.0934 N/A
10:57 pm 22:57 Clear 66 19 66 19 100 100 Calm 30.12 1020 10 16.0934 N/A
11:16 pm 23:16 Clear 64 18 64 18 100 100 Calm 30.12 1020 10 16.0934 N/A
11:36 pm 23:36 Clear 66 19 66 19 100 100 Calm 30.12 1020 10 16.0934 N/A
11:57 pm 23:57 Clear 64 18 64 18 100 100 Calm 30.12 1020 10 16.0934 N/A

Powered by AerisWeather